Total_Precipitation_Accumulation
0.05 0.19 0.54 1.42 3.40 1.97 2.68 1.74 1.98 1.11 0.40 0.22 0.12 0.16 0.27 0.29 0.55 0.65 0.19 0.36 0.18 0.24 0.18 0.92 1.43 1.10 1.04 0.80 0.70 0.53 0.40 0.34 0.38 0.37 0.34 0.28 0.32 0.38 0.60 0.54 0.55 0.57 0.49 0.42 0.40 0.47 0.59 0.45 0.38
0.10 0.49 1.30 3.75 3.01 3.34 3.93 2.21 2.28 1.25 0.55 0.40 0.17 0.12 0.12 0.08 0.16 0.06 0.15 0.22 0.07 0.05 0.12 0.32 1.12 1.02 0.92 0.65 0.51 0.40 0.44 0.46 0.48 0.51 0.42 0.41 0.69 0.64 0.56 0.37 0.51 0.63 0.63 0.65 0.62 0.57 0.57 0.49 0.64
0.15 1.27 3.50 4.12 1.87 2.79 2.41 2.77 3.05 1.27 0.58 0.39 0.32 0.30 0.19 0.21 0.08 0.06 0.10 0.10 0.09 0.10 0.09 0.21 0.53 0.64 0.53 0.57 0.59 0.51 0.51 0.40 0.51 0.51 0.44 0.59 0.66 0.56 0.43 0.50 0.50 0.62 0.59 0.58 0.71 0.62 0.70 0.72 0.98
0.33 3.29 4.42 3.64 3.14 2.66 1.50 1.60 1.58 2.04 1.11 0.80 0.48 0.31 0.22 0.21 0.02 0.03 0.08 0.11 0.10 0.25 0.09 0.16 0.30 0.36 0.38 0.45 0.39 0.50 0.54 0.48 0.47 0.45 0.38 0.51 0.58 0.51 0.58 0.59 0.53 0.43 0.39 0.39 0.43 0.43 0.47 0.59 0.73
0.56 3.02 3.88 3.82 2.96 1.74 1.23 1.44 2.81 3.59 1.96 1.44 0.45 0.25 0.18 0.10 0.01 0.01 0.03 0.07 0.12 0.62 0.11 0.13 0.61 0.41 0.36 0.41 0.61 0.68 0.49 0.46 0.49 0.58 0.55 0.64 0.57 0.47 0.64 0.50 0.53 0.42 0.22 0.22 0.23 0.20 0.41 0.57 0.94
1.46 2.91 3.43 3.32 1.49 0.95 1.53 1.81 2.19 2.07 1.36 0.60 0.39 0.17 0.18 0.07 0.03 0.02 0.08 0.12 0.28 0.22 0.05 0.05 0.39 0.39 0.41 0.37 0.65 0.55 0.43 0.46 0.49 0.48 0.65 0.60 0.83 0.59 0.55 0.48 0.24 0.08 0.04 0.12 0.12 0.42 0.63 0.87 0.82
1.65 4.36 3.24 2.18 1.33 1.37 1.48 1.46 1.44 1.54 0.83 0.41 0.37 0.10 0.14 0.09 0.07 0.06 0.16 0.16 0.13 0.09 0.07 0.06 0.11 0.25 0.34 0.52 0.68 0.52 0.37 0.38 0.35 0.35 0.43 0.36 0.40 0.44 0.53 0.36 0.17 0.07 0.11 0.21 0.22 0.36 0.49 0.66 0.47
1.03 3.14 4.42 2.51 1.03 2.31 1.47 1.22 1.35 1.12 0.75 0.26 0.18 0.09 0.06 0.04 0.17 0.27 0.30 0.24 0.36 0.33 0.20 0.10 0.07 0.16 0.21 0.37 0.69 0.39 0.24 0.32 0.25 0.24 0.46 0.65 0.34 0.42 0.45 0.46 0.33 0.16 0.15 0.16 0.23 0.35 0.46 0.62 0.55
1.46 4.83 3.84 2.23 0.77 2.20 1.24 1.23 1.03 0.82 0.29 0.23 0.24 0.08 0.00 0.00 0.05 0.09 0.07 0.18 0.27 0.41 0.20 0.24 0.21 0.21 0.68 0.44 0.56 0.57 0.49 0.48 0.40 0.53 0.93 1.52 0.60 0.79 0.89 0.50 0.22 0.16 0.19 0.17 0.24 0.26 0.45 0.46 0.32
2.30 4.06 2.29 1.11 0.32 0.77 1.95 1.32 1.07 0.73 0.43 0.28 0.19 0.06 0.01 0.01 0.01 0.03 0.02 0.05 0.16 0.19 0.45 0.37 0.16 0.13 0.23 0.26 0.49 0.64 0.43 0.41 0.50 0.53 0.81 1.23 0.57 0.52 0.37 0.38 0.34 0.29 0.32 0.40 0.45 0.43 0.59 1.00 0.46
2.01 3.57 1.74 0.46 0.38 0.40 1.22 1.00 0.65 0.77 0.45 0.21 0.09 0.05 0.01 0.00 0.00 0.02 0.02 0.02 0.04 0.08 0.11 0.32 0.10 0.25 0.25 0.23 0.07 0.29 0.29 0.12 0.24 0.41 0.59 0.98 0.50 0.41 0.55 0.58 1.05 0.59 0.49 0.77 0.76 0.42 0.43 1.04 0.43
0.84 0.91 1.37 1.08 0.77 0.37 0.91 2.04 0.63 1.46 1.58 0.33 0.18 0.02 0.00 0.00 0.00 0.01 0.00 0.02 0.03 0.04 0.07 0.13 0.12 0.29 0.50 0.31 0.30 0.19 0.10 0.04 0.19 0.25 0.18 0.29 0.35 0.46 0.72 0.78 1.02 0.84 0.75 1.31 0.60 0.23 0.19 0.29 0.23
0.57 0.67 0.95 1.09 0.38 0.40 0.60 0.96 0.79 0.97 0.70 0.34 0.25 0.04 0.01 0.01 0.01 0.02 0.01 0.03 0.02 0.02 0.05 0.07 0.05 0.20 0.40 0.47 0.20 0.28 0.10 0.06 0.03 0.07 0.17 0.41 0.34 0.42 0.61 0.54 0.81 0.62 0.53 1.09 0.31 0.23 0.14 0.04 0.03
0.40 0.61 1.05 1.44 1.06 0.74 0.66 0.81 0.54 0.62 0.42 0.43 0.28 0.03 0.00 0.01 0.00 0.01 0.02 0.02 0.03 0.02 0.00 0.03 0.04 0.12 0.28 0.61 0.36 0.15 0.16 0.02 0.02 0.12 0.23 0.41 0.32 0.55 0.63 0.65 0.40 0.35 0.39 0.36 0.28 0.25 0.35 0.02 0.00
0.32 0.60 1.07 1.45 1.82 1.73 1.14 1.88 1.28 0.64 0.56 0.37 0.16 0.02 0.00 0.00 0.00 0.00 0.00 0.00 0.00 0.00 0.00 0.00 0.01 0.09 0.13 0.25 0.20 0.09 0.17 0.06 0.05 0.10 0.32 0.46 0.42 0.59 0.75 0.54 0.45 0.50 0.40 0.26 0.28 0.17 0.28 0.03 0.01
0.50 0.61 1.23 2.15 2.07 2.28 1.50 2.66 2.19 1.44 1.72 0.30 0.11 0.01 0.00 0.00 0.00 0.00 0.00 0.00 0.00 0.00 0.00 0.00 0.00 0.02 0.09 0.11 0.07 0.09 0.06 0.09 0.06 0.21 0.13 0.25 0.47 0.51 0.64 0.59 0.54 0.59 0.96 0.40 0.31 0.22 0.11 0.01 0.01
0.68 0.74 0.96 2.69 2.72 2.81 2.15 2.95 2.84 1.34 1.06 0.33 0.13 0.04 0.00 0.01 0.00 0.00 0.00 0.00 0.00 0.00 0.00 0.01 0.00 0.01 0.05 0.05 0.10 0.15 0.09 0.14 0.17 0.23 0.30 0.25 0.28 0.46 1.03 0.83 0.62 0.42 0.43 0.35 0.19 0.18 0.05 0.01 0.00
0.42 0.81 0.87 1.60 3.08 2.97 2.53 2.76 2.74 1.67 1.23 0.79 0.29 0.10 0.03 0.01 0.00 0.00 0.00 0.00 0.00 0.00 0.00 0.00 0.01 0.00 0.07 0.19 0.31 0.23 0.18 0.20 0.17 0.18 0.41 0.44 0.37 0.54 0.84 0.73 0.79 0.48 0.51 0.46 0.41 0.12 0.02 0.03 0.01
0.39 0.71 1.25 1.38 2.18 3.36 2.92 2.21 2.58 1.25 0.89 1.14 0.54 0.17 0.07 0.01 0.01 0.01 0.00 0.00 0.00 0.00 0.00 0.00 0.02 0.08 0.13 0.14 0.10 0.12 0.21 0.12 0.16 0.28 0.36 0.48 0.42 0.42 0.57 0.69 0.71 0.93 0.84 0.87 0.31 0.12 0.03 0.01 0.00
0.11 0.37 1.39 1.61 2.00 1.93 2.71 2.03 2.02 1.93 0.99 0.75 0.75 0.27 0.10 0.03 0.01 0.00 0.00 0.00 0.01 0.00 0.00 0.00 0.07 0.14 0.13 0.08 0.14 0.15 0.13 0.12 0.21 0.38 0.44 0.22 0.32 0.41 0.34 0.65 0.47 0.67 0.62 0.45 0.37 0.47 0.30 0.55 0.04
0.13 0.14 0.88 1.93 1.83 1.88 1.68 2.24 1.73 1.85 1.77 0.93 0.92 0.51 0.30 0.04 0.04 0.00 0.00 0.00 0.02 0.01 0.00 0.00 0.06 0.16 0.15 0.20 0.18 0.49 0.58 0.65 0.78 0.54 0.31 0.16 0.22 0.24 0.36 0.48 0.65 0.67 0.62 0.59 0.32 0.18 0.24 0.49 0.08
0.16 0.16 0.41 1.18 1.43 1.46 1.35 1.42 1.53 1.24 1.61 1.93 1.26 0.43 0.22 0.09 0.06 0.04 0.00 0.01 0.01 0.01 0.00 0.00 0.02 0.17 0.16 0.16 0.23 0.50 0.60 0.61 0.49 0.39 0.55 0.34 0.13 0.14 0.18 0.26 0.36 0.51 1.15 1.12 0.40 0.28 0.21 0.21 0.39
0.04 0.07 0.25 0.66 0.97 0.92 0.80 0.76 0.72 1.12 1.22 1.72 1.34 0.39 0.28 0.21 0.10 0.08 0.02 0.03 0.04 0.00 0.00 0.00 0.00 0.15 0.15 0.22 0.57 0.34 0.20 0.44 0.43 0.42 1.00 0.50 0.28 0.12 0.17 0.20 0.34 0.26 0.39 0.38 0.37 0.29 0.18 0.16 0.25
0.02 0.06 0.09 0.31 0.96 0.58 0.25 0.35 0.35 0.70 0.81 1.06 0.91 0.63 0.36 0.13 0.15 0.15 0.07 0.05 0.04 0.01 0.00 0.00 0.00 0.04 0.12 0.19 0.18 0.32 0.45 0.61 0.99 1.13 0.94 0.39 0.22 0.16 0.12 0.13 0.27 0.31 0.45 0.43 0.25 0.21 0.11 0.08 0.13
0.01 0.02 0.16 0.23 0.49 0.43 0.12 0.16 0.30 0.13 0.65 0.76 0.67 0.58 0.40 0.25 0.24 0.18 0.10 0.13 0.10 0.02 0.00 0.00 0.00 0.01 0.04 0.11 0.08 0.17 0.29 0.48 0.80 0.92 0.47 0.44 0.57 0.59 0.32 0.40 0.50 0.26 0.20 0.23 0.20 0.28 0.18 0.06 0.07
0.01 0.01 0.02 0.05 0.11 0.23 0.20 0.36 0.14 0.05 0.15 0.25 0.27 0.24 0.53 0.37 0.36 0.39 0.26 0.28 0.38 0.18 0.02 0.06 0.02 0.02 0.01 0.08 0.07 0.13 0.22 0.21 0.32 0.46 0.69 0.67 0.73 0.80 0.45 0.49 0.42 0.31 0.17 0.09 0.15 0.10 0.05 0.06 0.04
0.02 0.01 0.03 0.04 0.07 0.12 0.29 0.45 0.15 0.14 0.22 0.08 0.14 0.19 0.34 0.64 0.74 0.51 0.28 0.45 0.88 0.57 0.28 0.07 0.08 0.07 0.06 0.04 0.07 0.17 0.20 0.16 0.16 0.43 0.59 0.51 0.66 0.83 0.95 0.47 0.37 0.29 0.24 0.11 0.13 0.09 0.11 0.19 0.20
0.00 0.06 0.07 0.06 0.08 0.08 0.27 0.78 0.43 0.15 0.12 0.15 0.14 0.19 0.17 0.67 1.61 1.81 1.37 0.72 0.83 1.34 1.14 0.72 0.23 0.15 0.22 0.08 0.12 0.25 0.16 0.16 0.22 0.28 0.44 0.57 0.73 1.88 1.69 0.81 0.44 0.38 0.29 0.31 0.24 0.10 0.06 0.08 0.09
0.00 0.02 0.05 0.04 0.03 0.03 0.14 0.29 0.27 0.26 0.13 0.08 0.12 0.23 0.28 0.43 1.41 2.70 2.72 2.29 1.27 1.61 1.10 1.78 0.98 0.76 0.69 0.57 0.50 0.62 0.33 0.16 0.17 0.23 0.36 0.53 0.64 0.76 0.84 1.31 0.54 0.66 0.57 0.36 0.42 0.37 0.26 0.23 0.15
0.00 0.00 0.00 0.02 0.01 0.02 0.03 0.20 0.26 0.38 0.19 0.10 0.27 0.31 0.31 0.47 0.83 1.59 2.29 2.52 1.95 1.74 1.26 1.43 2.09 1.50 1.29 1.22 1.36 0.94 0.94 0.77 0.46 0.32 0.31 0.43 0.55 0.59 0.70 0.66 0.81 0.89 0.61 0.69 0.56 0.54 0.48 0.47 0.31